Time,TemperatureF,DewpointF,PressureIn,WindDirection,WindDirectionDegrees,WindSpeedMPH,WindSpeedGustMPH,Humidity,HourlyPrecipIn,Conditions,Clouds,dailyrainin,SoftwareType,DateUTC
2013-08-31 00:06:00,62.8,55.8,29.83,North,0,0.0,-999.0,78,0.00,,,0.00,open2300 v1.10,2013-08-31 07:06:00,
2013-08-31 00:21:00,62.8,55.8,29.83,North,0,0.0,-999.0,78,0.00,,,0.00,open2300 v1.10,2013-08-31 07:21:00,
2013-08-31 00:36:00,62.8,55.8,29.83,North,0,0.0,-999.0,78,0.00,,,0.00,open2300 v1.10,2013-08-31 07:36:00,
2013-08-31 00:51:00,62.6,55.6,29.83,North,0,0.0,-999.0,78,0.00,,,0.00,open2300 v1.10,2013-08-31 07:51:00,
2013-08-31 01:07:00,62.4,55.4,29.83,North,0,0.0,-999.0,78,0.00,,,0.00,open2300 v1.10,2013-08-31 08:07:00,
2013-08-31 01:21:00,62.4,55.4,29.83,North,0,0.0,-999.0,78,0.00,,,0.00,open2300 v1.10,2013-08-31 08:21:00,
2013-08-31 01:36:00,62.4,55.4,29.82,North,0,0.0,-999.0,78,0.00,,,0.00,open2300 v1.10,2013-08-31 08:36:00,
2013-08-31 01:51:00,62.1,55.1,29.82,North,0,0.0,-999.0,78,0.00,,,0.00,open2300 v1.10,2013-08-31 08:51:00,
2013-08-31 02:07:00,61.9,55.3,29.82,North,0,0.0,-999.0,79,0.00,,,0.00,open2300 v1.10,2013-08-31 09:07:00,
2013-08-31 02:21:00,61.7,55.1,29.82,North,0,0.0,-999.0,79,0.00,,,0.00,open2300 v1.10,2013-08-31 09:21:00,
2013-08-31 02:36:00,61.5,55.0,29.82,North,0,0.0,-999.0,79,0.00,,,0.00,open2300 v1.10,2013-08-31 09:36:00,
2013-08-31 02:51:00,61.2,54.6,29.82,North,0,0.0,-999.0,79,0.00,,,0.00,open2300 v1.10,2013-08-31 09:51:00,
2013-08-31 03:07:00,61.0,54.8,29.81,North,0,0.0,-999.0,80,0.00,,,0.00,open2300 v1.10,2013-08-31 10:07:00,
2013-08-31 03:21:00,61.0,54.8,29.82,North,0,0.0,-999.0,80,0.00,,,0.00,open2300 v1.10,2013-08-31 10:21:00,
2013-08-31 03:36:00,60.6,54.5,29.82,North,0,0.0,-999.0,80,0.00,,,0.00,open2300 v1.10,2013-08-31 10:36:00,
2013-08-31 03:51:00,60.4,54.3,29.82,North,0,0.0,-999.0,80,0.00,,,0.00,open2300 v1.10,2013-08-31 10:51:00,
2013-08-31 04:07:00,60.1,54.0,29.83,North,0,0.0,-999.0,80,0.00,,,0.00,open2300 v1.10,2013-08-31 11:07:00,
2013-08-31 04:21:00,59.7,53.6,29.82,North,0,0.0,-999.0,80,0.00,,,0.00,open2300 v1.10,2013-08-31 11:21:00,
2013-08-31 04:36:00,59.5,53.7,29.82,North,0,0.0,-999.0,81,0.00,,,0.00,open2300 v1.10,2013-08-31 11:36:00,
2013-08-31 04:51:00,59.4,53.6,29.82,North,0,0.0,-999.0,81,0.00,,,0.00,open2300 v1.10,2013-08-31 11:51:00,
2013-08-31 05:07:00,59.2,53.4,29.82,North,0,0.0,-999.0,81,0.00,,,0.00,open2300 v1.10,2013-08-31 12:07:00,
2013-08-31 05:21:00,58.8,53.3,29.82,North,0,0.0,-999.0,82,0.00,,,0.00,open2300 v1.10,2013-08-31 12:21:00,
2013-08-31 05:36:00,58.8,53.3,29.82,North,0,0.0,-999.0,82,0.00,,,0.00,open2300 v1.10,2013-08-31 12:36:00,
2013-08-31 05:51:00,58.8,53.7,29.83,North,0,0.0,-999.0,83,0.00,,,0.00,open2300 v1.10,2013-08-31 12:51:00,
2013-08-31 06:07:00,58.8,53.7,29.82,North,0,0.0,-999.0,83,0.00,,,0.00,open2300 v1.10,2013-08-31 13:07:00,
2013-08-31 06:21:00,58.6,53.8,29.83,North,0,0.0,-999.0,84,0.00,,,0.00,open2300 v1.10,2013-08-31 13:21:00,
2013-08-31 06:36:00,58.3,53.5,29.83,North,0,0.0,-999.0,84,0.00,,,0.00,open2300 v1.10,2013-08-31 13:36:00,
2013-08-31 06:51:00,58.3,53.8,29.84,North,0,0.0,-999.0,85,0.00,,,0.00,open2300 v1.10,2013-08-31 13:51:00,
2013-08-31 07:07:00,58.6,54.1,29.84,North,0,0.0,-999.0,85,0.00,,,0.00,open2300 v1.10,2013-08-31 14:07:00,
2013-08-31 07:21:00,58.8,54.3,29.85,North,0,0.0,-999.0,85,0.00,,,0.00,open2300 v1.10,2013-08-31 14:21:00,
2013-08-31 07:36:00,58.8,54.3,29.84,North,0,0.0,-999.0,85,0.00,,,0.00,open2300 v1.10,2013-08-31 14:36:00,
2013-08-31 07:51:00,59.4,54.9,29.84,North,0,0.0,-999.0,85,0.00,,,0.00,open2300 v1.10,2013-08-31 14:51:00,
2013-08-31 08:06:00,59.9,55.1,29.85,North,0,0.0,-999.0,84,0.00,,,0.00,open2300 v1.10,2013-08-31 15:06:00,
2013-08-31 08:21:00,60.4,55.6,29.85,North,0,0.0,-999.0,84,0.00,,,0.00,open2300 v1.10,2013-08-31 15:21:00,
2013-08-31 08:36:00,61.0,56.1,29.86,North,0,0.0,-999.0,84,0.00,,,0.00,open2300 v1.10,2013-08-31 15:36:00,
2013-08-31 08:51:00,61.3,56.5,29.86,North,0,0.0,-999.0,84,0.00,,,0.00,open2300 v1.10,2013-08-31 15:51:00,
2013-08-31 09:06:00,61.7,56.5,29.86,North,0,0.0,-999.0,83,0.00,,,0.00,open2300 v1.10,2013-08-31 16:06:00,
2013-08-31 09:21:00,61.5,56.3,29.86,North,0,0.0,-999.0,83,0.00,,,0.00,open2300 v1.10,2013-08-31 16:21:00,
2013-08-31 09:36:00,61.5,56.0,29.86,North,0,0.0,-999.0,82,0.00,,,0.00,open2300 v1.10,2013-08-31 16:36:00,
2013-08-31 09:51:00,61.9,56.3,29.86,North,0,0.0,-999.0,82,0.00,,,0.00,open2300 v1.10,2013-08-31 16:51:00,
2013-08-31 10:06:00,62.2,56.6,29.86,North,0,0.0,-999.0,82,0.00,,,0.00,open2300 v1.10,2013-08-31 17:06:00,
2013-08-31 10:21:00,62.4,56.8,29.86,North,0,0.0,-999.0,82,0.00,,,0.00,open2300 v1.10,2013-08-31 17:21:00,
2013-08-31 10:36:00,62.8,56.8,29.86,North,0,0.0,-999.0,81,0.00,,,0.00,open2300 v1.10,2013-08-31 17:36:00,
2013-08-31 10:51:00,63.0,56.7,29.87,North,0,0.0,-999.0,80,0.00,,,0.00,open2300 v1.10,2013-08-31 17:51:00,
2013-08-31 11:06:00,63.0,56.7,29.86,North,0,0.0,-999.0,80,0.00,,,0.00,open2300 v1.10,2013-08-31 18:06:00,
2013-08-31 11:21:00,63.1,56.8,29.87,North,0,0.0,-999.0,80,0.00,,,0.00,open2300 v1.10,2013-08-31 18:21:00,
2013-08-31 11:36:00,63.1,56.8,29.87,North,0,0.0,-999.0,80,0.00,,,0.00,open2300 v1.10,2013-08-31 18:36:00,
2013-08-31 11:51:00,63.5,57.2,29.86,North,0,0.0,-999.0,80,0.00,,,0.00,open2300 v1.10,2013-08-31 18:51:00,
2013-08-31 12:06:00,63.7,57.4,29.87,North,0,0.0,-999.0,80,0.00,,,0.00,open2300 v1.10,2013-08-31 19:06:00,
2013-08-31 12:21:00,63.7,57.4,29.87,North,0,0.0,-999.0,80,0.00,,,0.00,open2300 v1.10,2013-08-31 19:21:00,
2013-08-31 12:36:00,63.7,57.4,29.86,North,0,0.0,-999.0,80,0.00,,,0.00,open2300 v1.10,2013-08-31 19:36:00,
2013-08-31 12:51:00,63.9,57.2,29.86,North,0,0.0,-999.0,79,0.00,,,0.00,open2300 v1.10,2013-08-31 19:51:00,
2013-08-31 13:06:00,63.9,57.2,29.86,North,0,0.0,-999.0,79,0.00,,,0.00,open2300 v1.10,2013-08-31 20:06:00,
2013-08-31 13:21:00,64.0,57.4,29.85,North,0,0.0,-999.0,79,0.00,,,0.00,open2300 v1.10,2013-08-31 20:21:00,
2013-08-31 13:36:00,64.2,57.6,29.85,North,0,0.0,-999.0,79,0.00,,,0.00,open2300 v1.10,2013-08-31 20:36:00,
2013-08-31 13:51:00,64.4,57.7,29.85,North,0,0.0,-999.0,79,0.00,,,0.00,open2300 v1.10,2013-08-31 20:51:00,
2013-08-31 14:06:00,64.6,57.9,29.84,North,0,0.0,-999.0,79,0.00,,,0.00,open2300 v1.10,2013-08-31 21:06:00,
2013-08-31 14:21:00,64.6,57.9,29.84,North,0,0.0,-999.0,79,0.00,,,0.00,open2300 v1.10,2013-08-31 21:21:00,
2013-08-31 14:36:00,64.6,57.9,29.84,North,0,0.0,-999.0,79,0.00,,,0.00,open2300 v1.10,2013-08-31 21:36:00,
2013-08-31 14:51:00,64.6,57.9,29.83,North,0,0.0,-999.0,79,0.00,,,0.00,open2300 v1.10,2013-08-31 21:51:00,
2013-08-31 15:06:00,64.4,57.7,29.83,North,0,0.0,-999.0,79,0.00,,,0.00,open2300 v1.10,2013-08-31 22:06:00,
2013-08-31 15:21:00,64.6,57.9,29.82,North,0,0.0,-999.0,79,0.00,,,0.00,open2300 v1.10,2013-08-31 22:21:00,
2013-08-31 15:36:00,64.9,58.3,29.82,North,0,0.0,-999.0,79,0.00,,,0.00,open2300 v1.10,2013-08-31 22:36:00,
2013-08-31 15:51:00,64.9,57.9,29.82,North,0,0.0,-999.0,78,0.00,,,0.00,open2300 v1.10,2013-08-31 22:51:00,
2013-08-31 16:06:00,65.1,58.1,29.81,North,0,0.0,-999.0,78,0.00,,,0.00,open2300 v1.10,2013-08-31 23:06:00,
2013-08-31 16:21:00,65.5,58.4,29.81,North,0,0.0,-999.0,78,0.00,,,0.00,open2300 v1.10,2013-08-31 23:21:00,
2013-08-31 16:36:00,65.8,58.4,29.80,North,0,0.0,-999.0,77,0.00,,,0.00,open2300 v1.10,2013-08-31 23:36:00,
2013-08-31 16:51:00,66.4,59.0,29.80,North,0,0.0,-999.0,77,0.00,,,0.00,open2300 v1.10,2013-08-31 23:51:00,
2013-08-31 17:06:00,67.1,59.3,29.79,North,0,0.0,-999.0,76,0.00,,,0.00,open2300 v1.10,2013-09-01 00:06:00,
2013-08-31 17:21:00,67.6,59.8,29.78,North,0,0.0,-999.0,76,0.00,,,0.00,open2300 v1.10,2013-09-01 00:21:00,
2013-08-31 17:36:00,68.4,60.1,29.79,North,0,0.0,-999.0,75,0.00,,,0.00,open2300 v1.10,2013-09-01 00:36:00,
2013-08-31 17:51:00,68.2,59.6,29.79,North,0,0.0,-999.0,74,0.00,,,0.00,open2300 v1.10,2013-09-01 00:51:00,
2013-08-31 18:06:00,67.8,58.9,29.78,North,0,0.0,-999.0,73,0.00,,,0.00,open2300 v1.10,2013-09-01 01:06:00,
2013-08-31 18:21:00,67.3,58.7,29.78,North,0,0.0,-999.0,74,0.00,,,0.00,open2300 v1.10,2013-09-01 01:21:00,
2013-08-31 18:36:00,67.1,58.2,29.78,North,0,0.0,-999.0,73,0.00,,,0.00,open2300 v1.10,2013-09-01 01:36:00,
2013-08-31 18:51:00,66.0,57.5,29.79,North,0,0.0,-999.0,74,0.00,,,0.00,open2300 v1.10,2013-09-01 01:51:00,
2013-08-31 19:06:00,64.8,56.6,29.79,North,0,0.0,-999.0,75,0.00,,,0.00,open2300 v1.10,2013-09-01 02:06:00,
2013-08-31 19:21:00,64.0,56.7,29.79,North,0,0.0,-999.0,77,0.00,,,0.00,open2300 v1.10,2013-09-01 02:21:00,
2013-08-31 19:36:00,63.0,55.9,29.79,North,0,0.0,-999.0,78,0.00,,,0.00,open2300 v1.10,2013-09-01 02:36:00,
2013-08-31 19:51:00,62.4,55.8,29.80,North,0,0.0,-999.0,79,0.00,,,0.00,open2300 v1.10,2013-09-01 02:51:00,
2013-08-31 20:06:00,61.7,55.5,29.80,North,0,0.0,-999.0,80,0.00,,,0.00,open2300 v1.10,2013-09-01 03:06:00,
2013-08-31 20:21:00,61.3,55.5,29.80,North,0,0.0,-999.0,81,0.00,,,0.00,open2300 v1.10,2013-09-01 03:21:00,
2013-08-31 20:36:00,61.0,55.5,29.81,North,0,0.0,-999.0,82,0.00,,,0.00,open2300 v1.10,2013-09-01 03:36:00,
2013-08-31 20:51:00,61.0,55.8,29.81,North,0,0.0,-999.0,83,0.00,,,0.00,open2300 v1.10,2013-09-01 03:51:00,
2013-08-31 21:06:00,60.6,55.5,29.81,North,0,0.0,-999.0,83,0.00,,,0.00,open2300 v1.10,2013-09-01 04:06:00,
2013-08-31 21:21:00,60.4,55.6,29.81,North,0,0.0,-999.0,84,0.00,,,0.00,open2300 v1.10,2013-09-01 04:21:00,
2013-08-31 21:36:00,60.4,55.6,29.81,North,0,0.0,-999.0,84,0.00,,,0.00,open2300 v1.10,2013-09-01 04:36:00,
2013-08-31 21:51:00,60.1,55.3,29.82,North,0,0.0,-999.0,84,0.00,,,0.00,open2300 v1.10,2013-09-01 04:51:00,
2013-08-31 22:06:00,60.1,55.3,29.82,North,0,0.0,-999.0,84,0.00,,,0.00,open2300 v1.10,2013-09-01 05:06:00,
2013-08-31 22:21:00,60.1,55.3,29.82,North,0,0.0,-999.0,84,0.00,,,0.00,open2300 v1.10,2013-09-01 05:21:00,
2013-08-31 22:36:00,59.9,55.1,29.83,North,0,0.0,-999.0,84,0.00,,,0.00,open2300 v1.10,2013-09-01 05:36:00,
2013-08-31 22:51:00,59.7,55.2,29.83,North,0,0.0,-999.0,85,0.00,,,0.00,open2300 v1.10,2013-09-01 05:51:00,
2013-08-31 23:06:00,59.5,55.0,29.83,North,0,0.0,-999.0,85,0.00,,,0.00,open2300 v1.10,2013-09-01 06:06:00,
2013-08-31 23:21:00,59.5,55.0,29.83,North,0,0.0,-999.0,85,0.00,,,0.00,open2300 v1.10,2013-09-01 06:21:00,
2013-08-31 23:36:00,59.5,55.0,29.83,North,0,0.0,-999.0,85,0.00,,,0.00,open2300 v1.10,2013-09-01 06:36:00,
2013-08-31 23:51:00,59.5,55.0,29.83,North,0,0.0,-999.0,85,0.00,,,0.00,open2300 v1.10,2013-09-01 06:51:00,